Tracking 28799 objects as of 18-Apr-2024
HD Live streaming from Space Station
objects crossing your sky now

FENGYUN 1C DEB

Track FENGYUN 1C DEB now!
10-day predictions


NORAD ID: 31295
Int'l Code: 1999-025BPD
Perigee: 855.8 km
Apogee: 970.5 km
Inclination: 98.4 °
Period: 103.1 minutes
Semi major axis: 7284 km
RCS: 0.0104 m2 (small)
Launch date: May 10, 1999
Source: People's Republic of China (PRC)
Launch site: Taiyaun Space Center, China (TSC)

Note: This is SATELLITE DEBRIS
Your satellite tracking list
Your tracking list is empty




NASA's NSSDC Master Catalog

Two Line Element Set (TLE):
1 31295U 99025BPD 24108.61991794  .00000038  00000-0  53338-4 0  9993
2 31295  98.3802 343.4719 0078708 142.9619 217.7014 13.96473164870703
Source of the keplerian elements: AFSPC